Weather History for KPQI - March, 2014

Change the Weather History Date:

Monday, March 24, 2014

  Actual Average Record
Temperature  
Mean Temperature 3 °F -  
Max Temperature 17 °F 40 °F 61 °F (1979)
Min Temperature -11 °F 20 °F -20 °F (2008)
Degree Days  
Heating Degree Days 62    
Moisture  
Dew Point -10 °F    
Average Humidity 49    
Maximum Humidity 85    
Minimum Humidity 25    
Precipitation  
Precipitation 0.00 in - - ()
Sea Level Pressure  
Sea Level Pressure 29.95 in    
Wind  
Wind Speed 7 mph (WNW)    
Max Wind Speed 18 mph    
Max Gust Speed 25 mph    
Visibility 10 miles    
Events      
Averages and records for this station are not official NWS values.
T = Trace of Precipitation, MM = Missing Value Source: NWS Daily Summary

Daily Weather History Graph

Daily Weather History Graph

Search for Another Location

Airport or City:

Trip Planner

Search our weather history database for the weather conditions in past years. The results will help you decide how hot, cold, wet, or windy it might be!

Date:

Astronomy

Mar. 24, 2014 Rise Set
Actual Time 6:27 AM EDT 6:50 PM EDT
Civil Twilight 5:57 AM EDT 7:20 PM EDT
Nautical Twilight 5:21 AM EDT 7:56 PM EDT
Astronomical Twilight 4:44 AM EDT 8:33 PM EDT
Moon 2:14 AM EDT (3/24) 11:52 AM EDT (3/24)
Length of Visible Light 13h 23m
Length of Day
12h 22m
Last Quarter, 43% of the Moon is Illuminated
Mar 24
Last Quarter
Mar 30
New
Apr 7
First Quarter
Apr 15
Full
Apr 22
Last Quarter

Hourly Weather History & Observations

Time (EDT) Temp. Windchill Dew Point Humidity Pressure Visibility Wind Dir Wind Speed Gust Speed Precip Events Conditions
12:15 AM 1.4 °F -9.9 °F -11.2 °F 56% 30.00 in 10.0 mi WNW 5.8 mph - N/A   Clear
12:35 AM -0.4 °F -12.0 °F -11.2 °F 60% 30.00 in 10.0 mi West 5.8 mph - N/A   Clear
12:55 AM -0.4 °F -10.4 °F -9.4 °F 66% 30.00 in 10.0 mi West 4.6 mph - N/A   Clear
1:15 AM -0.4 °F -13.4 °F -9.4 °F 66% 29.99 in 10.0 mi WNW 6.9 mph - N/A   Clear
1:35 AM -0.4 °F -8.3 °F -11.2 °F 60% 29.99 in 10.0 mi West 3.5 mph - N/A   Clear
1:55 AM -2.2 °F -10.4 °F -11.2 °F 66% 29.99 in 10.0 mi West 3.5 mph - N/A   Clear
2:15 AM -2.2 °F -10.4 °F -7.6 °F 78% 29.99 in 10.0 mi West 3.5 mph - N/A   Clear
2:35 AM -4.0 °F -14.6 °F -11.2 °F 71% 29.98 in 10.0 mi West 4.6 mph - N/A   Clear
2:55 AM -5.8 °F -14.5 °F -16.6 °F 60% 29.98 in 10.0 mi West 3.5 mph - N/A   Clear
3:15 AM -5.8 °F -16.7 °F -9.4 °F 84% 29.97 in 10.0 mi WNW 4.6 mph - N/A   Clear
3:35 AM -2.2 °F -15.6 °F -5.8 °F 85% 29.96 in 10.0 mi WNW 6.9 mph - N/A   Clear
3:55 AM -2.2 °F -10.4 °F -13.0 °F 60% 29.97 in 10.0 mi West 3.5 mph - N/A   Clear
4:15 AM -5.8 °F -14.5 °F -13.0 °F 71% 29.97 in 10.0 mi WSW 3.5 mph - N/A   Clear
4:35 AM -9.4 °F -20.9 °F -18.4 °F 65% 29.97 in 10.0 mi SW 4.6 mph - N/A   Clear
4:55 AM -9.4 °F -22.7 °F -20.2 °F 59% 29.96 in 10.0 mi West 5.8 mph - N/A   Clear
5:15 AM -5.8 °F -16.7 °F - N/A% 29.96 in 10.0 mi WSW 4.6 mph - N/A   Clear
5:35 AM -9.4 °F -18.6 °F - N/A% 29.96 in 10.0 mi SE 3.5 mph - N/A   Clear
5:55 AM -11.2 °F -27.8 °F - N/A% 29.96 in 10.0 mi South 8.1 mph - N/A   Clear
6:15 AM -5.8 °F -16.7 °F -25.6 °F 38% 29.97 in 10.0 mi West 4.6 mph - N/A   Clear
6:35 AM -2.2 °F -12.5 °F -14.8 °F 55% 29.97 in 10.0 mi SW 4.6 mph - N/A   Clear
6:55 AM -5.8 °F -14.5 °F -13.0 °F 71% 29.98 in 10.0 mi SW 3.5 mph - N/A   Clear
7:15 AM -5.8 °F -16.7 °F - N/A% 29.98 in 10.0 mi WSW 4.6 mph - N/A   Clear
7:35 AM -2.2 °F -15.6 °F - N/A% 29.98 in 10.0 mi West 6.9 mph - N/A   Clear
7:55 AM -0.4 °F -10.4 °F -25.6 °F 30% 29.98 in 10.0 mi WNW 4.6 mph - N/A   Clear
8:15 AM 1.4 °F -13.5 °F -16.6 °F 43% 29.98 in 10.0 mi West 9.2 mph - N/A   Clear
8:35 AM 3.2 °F -12.2 °F -13.0 °F 47% 29.98 in 10.0 mi WNW 10.4 mph - N/A   Clear
8:55 AM 3.2 °F -10.3 °F - N/A% 29.98 in 10.0 mi NW 8.1 mph - N/A   Clear
9:15 AM 5.0 °F -8.1 °F -9.4 °F 52% 29.98 in 9.0 mi NW 8.1 mph - N/A   Clear
9:35 AM 5.0 °F -10.8 °F -13.0 °F 43% 29.98 in 10.0 mi NNW 11.5 mph 18.4 mph N/A   Clear
9:55 AM 6.8 °F -9.3 °F -14.8 °F 37% 29.97 in 10.0 mi NW 12.7 mph 17.3 mph N/A   Clear
10:15 AM 6.8 °F -10.0 °F -16.6 °F 34% 29.97 in 10.0 mi NNW 13.8 mph 18.4 mph N/A   Clear
10:35 AM 8.6 °F -8.3 °F -16.6 °F 31% 29.97 in 9.0 mi NNW 15.0 mph 21.9 mph N/A   Clear
10:55 AM 8.6 °F -7.0 °F -9.4 °F 44% 29.96 in 10.0 mi NNW 12.7 mph - N/A   Clear
11:15 AM 10.4 °F -6.0 °F -5.8 °F 48% 29.96 in 9.0 mi NNW 15.0 mph 20.7 mph N/A   Clear
11:35 AM 10.4 °F -6.0 °F -11.2 °F 37% 29.95 in 10.0 mi NW 15.0 mph 20.7 mph N/A   Clear
11:55 AM 12.2 °F -4.8 °F -16.6 °F 27% 29.94 in 10.0 mi NNW 17.3 mph 23.0 mph N/A   Clear
12:15 PM 12.2 °F -4.3 °F -16.6 °F 27% 29.94 in 10.0 mi NW 16.1 mph 21.9 mph N/A   Clear
12:35 PM 12.2 °F -4.8 °F -7.6 °F 41% 29.93 in 10.0 mi WNW 17.3 mph 20.7 mph N/A   Clear
12:55 PM 14.0 °F -0.2 °F -5.8 °F 41% 29.92 in 10.0 mi WNW 12.7 mph 21.9 mph N/A   Clear
1:15 PM 14.0 °F -2.0 °F -13.0 °F 29% 29.92 in 10.0 mi NNW 16.1 mph - N/A   Clear
1:35 PM 15.8 °F 1.4 °F -14.8 °F 25% 29.91 in 10.0 mi WNW 13.8 mph 20.7 mph N/A   Clear
1:55 PM 15.8 °F 2.1 °F -11.2 °F 30% 29.90 in 10.0 mi NW 12.7 mph 21.9 mph N/A   Clear
2:15 PM 15.8 °F -0.6 °F -5.8 °F 38% 29.90 in 10.0 mi NW 18.4 mph 24.2 mph N/A   Clear
2:35 PM 15.8 °F 0.9 °F -5.8 °F 38% 29.90 in 10.0 mi NW 15.0 mph 24.2 mph N/A   Partly Cloudy
2:55 PM 17.6 °F 4.3 °F -5.8 °F 35% 29.90 in 10.0 mi NW 12.7 mph 25.3 mph N/A   Mostly Cloudy
3:15 PM 15.8 °F 2.1 °F -5.8 °F 38% 29.89 in 10.0 mi WNW 12.7 mph 19.6 mph N/A   Mostly Cloudy
3:35 PM 15.8 °F -0.2 °F -4.0 °F 41% 29.89 in 10.0 mi NNW 17.3 mph 20.7 mph N/A   Overcast
3:55 PM 15.8 °F 2.1 °F -5.8 °F 38% 29.90 in 10.0 mi NW 12.7 mph 16.1 mph N/A   Mostly Cloudy
4:15 PM 17.6 °F 3.7 °F -4.0 °F 38% 29.89 in 10.0 mi NW 13.8 mph 20.7 mph N/A   Mostly Cloudy
4:35 PM 17.6 °F 5.0 °F -5.8 °F 35% 29.89 in 10.0 mi NW 11.5 mph 17.3 mph N/A   Mostly Cloudy
4:55 PM 17.6 °F 4.3 °F -4.0 °F 38% 29.89 in 10.0 mi NNW 12.7 mph 17.3 mph N/A   Scattered Clouds
5:15 PM 17.6 °F 5.0 °F -4.0 °F 38% 29.90 in 10.0 mi WNW 11.5 mph 19.6 mph N/A   Mostly Cloudy
5:35 PM 17.6 °F 5.0 °F -5.8 °F 35% 29.91 in 10.0 mi WNW 11.5 mph - N/A   Overcast
5:55 PM 15.8 °F 1.4 °F -2.2 °F 45% 29.91 in 10.0 mi WNW 13.8 mph - N/A   Overcast
6:15 PM 15.8 °F 2.1 °F -4.0 °F 41% 29.91 in 10.0 mi WNW 12.7 mph 18.4 mph N/A   Overcast
6:35 PM 15.8 °F 4.2 °F -4.0 °F 41% 29.92 in 10.0 mi NW 9.2 mph - N/A   Mostly Cloudy
6:55 PM 15.8 °F 3.4 °F -4.0 °F 41% 29.92 in 10.0 mi NW 10.4 mph - N/A   Scattered Clouds
7:15 PM 14.0 °F 3.9 °F -4.0 °F 45% 29.92 in 10.0 mi NW 6.9 mph - N/A   Clear
7:35 PM 12.2 °F 4.3 °F -2.2 °F 53% 29.93 in 10.0 mi NW 4.6 mph - N/A   Clear
7:55 PM 10.4 °F 2.2 °F -5.8 °F 48% 29.94 in 10.0 mi West 4.6 mph - N/A   Clear
8:15 PM 10.4 °F 0.8 °F -5.8 °F 48% 29.95 in 10.0 mi West 5.8 mph - N/A   Partly Cloudy
8:35 PM 8.6 °F 2.0 °F -4.0 °F 57% 29.95 in 10.0 mi West 3.5 mph - N/A   Mostly Cloudy
8:55 PM 6.8 °F -2.0 °F -7.6 °F 52% 29.95 in 10.0 mi WNW 4.6 mph - N/A   Partly Cloudy
9:15 PM 8.6 °F 2.0 °F -0.4 °F 67% 29.95 in 10.0 mi WNW 3.5 mph - N/A   Clear
9:35 PM 6.8 °F -2.0 °F -4.0 °F 61% 29.96 in 10.0 mi WNW 4.6 mph - N/A   Clear
9:55 PM 5.0 °F -6.9 °F -2.2 °F 72% 29.96 in 10.0 mi West 6.9 mph - N/A   Clear
10:15 PM 6.8 °F -4.8 °F -0.4 °F 72% 29.96 in 10.0 mi West 6.9 mph - N/A   Clear
10:35 PM 1.4 °F - -11.2 °F 56% 29.97 in 10.0 mi Calm Calm - N/A   Clear
10:55 PM -2.2 °F -12.5 °F -14.8 °F 55% 29.97 in 10.0 mi West 4.6 mph - N/A   Clear
11:15 PM -2.2 °F -10.4 °F -16.6 °F 50% 29.97 in 10.0 mi West 3.5 mph - N/A   Clear
11:35 PM -4.0 °F - -16.6 °F 55% 29.97 in 10.0 mi Calm Calm - N/A   Clear
11:55 PM -5.8 °F -14.5 °F -18.4 °F 55% 29.97 in 10.0 mi SSE 3.5 mph - N/A   Clear